Time,TemperatureF,DewpointF,PressureIn,WindDirection,WindDirectionDegrees,WindSpeedMPH,WindSpeedGustMPH,Humidity,HourlyPrecipIn,Conditions,Clouds,dailyrainin,SoftwareType,DateUTC
2013-08-11 00:01:00,66.4,56.7,29.56,SSW,202,1.3,1.3,71,0.00,,,0.00,VWS V14.01,2013-08-11 04:01:00,
2013-08-11 00:02:00,66.4,56.7,29.56,SSW,202,2.0,2.0,71,0.00,,,0.00,VWS V14.01,2013-08-11 04:02:00,
2013-08-11 00:03:00,66.4,57.1,29.56,SW,225,2.5,2.5,72,0.00,,,0.00,VWS V14.01,2013-08-11 04:03:00,
2013-08-11 00:08:00,66.2,56.9,29.56,SSW,202,2.2,2.2,72,0.00,,,0.00,VWS V14.01,2013-08-11 04:08:00,
2013-08-11 00:13:00,66.0,56.7,29.56,SSW,202,2.2,2.2,72,0.00,,,0.00,VWS V14.01,2013-08-11 04:13:00,
2013-08-11 00:18:00,66.0,56.7,29.56,SSW,202,0.0,0.0,72,0.00,,,0.00,VWS V14.01,2013-08-11 04:18:00,
2013-08-11 00:23:00,65.8,56.6,29.56,South,180,0.0,0.0,72,0.00,,,0.00,VWS V14.01,2013-08-11 04:23:00,
2013-08-11 00:28:00,65.7,56.4,29.56,ENE,68,2.0,2.0,72,0.00,,,0.00,VWS V14.01,2013-08-11 04:28:00,
2013-08-11 00:33:00,65.5,56.2,29.59,NNE,22,0.0,0.0,72,0.00,,,0.00,VWS V14.01,2013-08-11 04:33:00,
2013-08-11 00:38:00,65.5,56.2,29.59,NNE,22,0.0,0.0,72,0.00,,,0.00,VWS V14.01,2013-08-11 04:38:00,
2013-08-11 00:43:00,65.5,56.2,29.59,NNE,22,0.0,0.0,72,0.00,,,0.00,VWS V14.01,2013-08-11 04:43:00,
2013-08-11 00:48:00,65.7,56.4,29.59,NNE,22,0.0,0.0,72,0.00,,,0.00,VWS V14.01,2013-08-11 04:48:00,
2013-08-11 00:53:00,65.5,56.2,29.59,NNE,22,0.0,0.0,72,0.00,,,0.00,VWS V14.01,2013-08-11 04:53:00,
2013-08-11 00:58:00,65.5,55.8,29.59,NNE,22,0.0,0.0,71,0.00,,,0.00,VWS V14.01,2013-08-11 04:58:00,
2013-08-11 01:03:00,65.7,56.0,29.56,North,0,2.2,2.2,71,0.00,,,0.00,VWS V14.01,2013-08-11 05:03:00,
2013-08-11 01:08:00,65.8,56.2,29.56,NNW,338,1.1,1.1,71,0.00,,,0.00,VWS V14.01,2013-08-11 05:08:00,
2013-08-11 01:13:00,66.0,56.0,29.56,WNW,292,0.0,0.0,70,0.00,,,0.00,VWS V14.01,2013-08-11 05:13:00,
2013-08-11 01:18:00,65.3,55.7,29.59,SSW,202,0.0,0.0,71,0.00,,,0.00,VWS V14.01,2013-08-11 05:18:00,
2013-08-11 01:23:00,64.9,55.3,29.59,SE,135,0.0,0.0,71,0.00,,,0.00,VWS V14.01,2013-08-11 05:23:00,
2013-08-11 01:29:00,64.6,55.4,29.59,South,180,0.0,0.0,72,0.00,,,0.00,VWS V14.01,2013-08-11 05:29:00,
2013-08-11 01:34:00,64.4,55.2,29.59,South,180,0.0,0.0,72,0.00,,,0.00,VWS V14.01,2013-08-11 05:34:00,
2013-08-11 01:39:00,64.4,55.6,29.59,SW,225,0.0,0.0,73,0.00,,,0.00,VWS V14.01,2013-08-11 05:39:00,
2013-08-11 01:44:00,64.2,56.1,29.59,SSW,202,2.5,2.5,75,0.00,,,0.00,VWS V14.01,2013-08-11 05:44:00,
2013-08-11 01:49:00,64.0,56.0,29.59,SSW,202,2.2,2.2,75,0.00,,,0.00,VWS V14.01,2013-08-11 05:49:00,
2013-08-11 01:54:00,64.2,56.1,29.59,WSW,248,1.1,1.1,75,0.00,,,0.00,VWS V14.01,2013-08-11 05:54:00,
2013-08-11 01:59:00,64.2,56.5,29.59,SW,225,1.1,1.1,76,0.00,,,0.00,VWS V14.01,2013-08-11 05:59:00,
2013-08-11 02:04:00,64.2,56.5,29.59,SSW,202,1.3,1.3,76,0.00,,,0.00,VWS V14.01,2013-08-11 06:04:00,
2013-08-11 02:10:00,64.2,56.5,29.59,SSE,158,1.1,1.1,76,0.00,,,0.00,VWS V14.01,2013-08-11 06:10:00,
2013-08-11 02:15:00,64.4,56.7,29.59,SE,135,0.0,0.0,76,0.00,,,0.00,VWS V14.01,2013-08-11 06:15:00,
2013-08-11 02:20:00,64.4,56.7,29.59,SE,135,1.6,1.6,76,0.00,,,0.00,VWS V14.01,2013-08-11 06:20:00,
2013-08-11 02:25:00,64.4,56.7,29.59,SSE,158,2.9,2.9,76,0.00,,,0.00,VWS V14.01,2013-08-11 06:25:00,
2013-08-11 02:30:00,64.2,56.5,29.59,SE,135,0.0,0.0,76,0.00,,,0.00,VWS V14.01,2013-08-11 06:30:00,
2013-08-11 02:35:00,64.0,56.0,29.59,ENE,68,0.0,0.0,75,0.00,,,0.00,VWS V14.01,2013-08-11 06:35:00,
2013-08-11 02:40:00,64.0,56.3,29.59,ENE,68,0.0,0.0,76,0.00,,,0.00,VWS V14.01,2013-08-11 06:40:00,
2013-08-11 02:45:00,64.0,56.3,29.59,NNE,22,0.0,0.0,76,0.00,,,0.00,VWS V14.01,2013-08-11 06:45:00,
2013-08-11 02:51:00,64.0,56.7,29.59,NNE,22,0.0,0.0,77,0.00,,,0.00,VWS V14.01,2013-08-11 06:51:00,
2013-08-11 02:56:00,63.9,56.5,29.59,NNE,22,0.0,0.0,77,0.00,,,0.00,VWS V14.01,2013-08-11 06:56:00,
2013-08-11 03:01:00,63.9,56.5,29.59,North,0,0.0,0.0,77,0.00,,,0.00,VWS V14.01,2013-08-11 07:01:00,
2013-08-11 03:06:00,63.7,56.3,29.59,North,0,0.0,0.0,77,0.00,,,0.00,VWS V14.01,2013-08-11 07:06:00,
2013-08-11 03:11:00,63.5,56.2,29.59,North,0,0.0,0.0,77,0.00,,,0.00,VWS V14.01,2013-08-11 07:11:00,
2013-08-11 03:16:00,63.5,56.2,29.59,North,0,0.0,0.0,77,0.00,,,0.00,VWS V14.01,2013-08-11 07:16:00,
2013-08-11 03:22:00,63.3,56.0,29.59,SSE,158,2.2,2.2,77,0.00,,,0.00,VWS V14.01,2013-08-11 07:22:00,
2013-08-11 03:27:00,63.1,55.8,29.59,East,90,0.0,0.0,77,0.00,,,0.00,VWS V14.01,2013-08-11 07:27:00,
2013-08-11 03:32:00,62.8,55.5,29.59,NE,45,1.1,1.1,77,0.00,,,0.00,VWS V14.01,2013-08-11 07:32:00,
2013-08-11 03:37:00,62.8,55.8,29.59,NE,45,0.0,0.0,78,0.00,,,0.00,VWS V14.01,2013-08-11 07:37:00,
2013-08-11 03:42:00,62.6,55.7,29.59,ENE,68,0.0,0.0,78,0.00,,,0.00,VWS V14.01,2013-08-11 07:42:00,
2013-08-11 03:47:00,62.6,56.0,29.59,East,90,0.0,0.0,79,0.00,,,0.00,VWS V14.01,2013-08-11 07:47:00,
2013-08-11 03:52:00,62.6,56.3,29.59,East,90,0.0,0.0,80,0.00,,,0.00,VWS V14.01,2013-08-11 07:52:00,
2013-08-11 03:57:00,62.6,56.3,29.59,WSW,248,0.0,0.0,80,0.00,,,0.00,VWS V14.01,2013-08-11 07:57:00,
2013-08-11 04:03:00,62.2,56.0,29.59,WSW,248,0.0,0.0,80,0.00,,,0.00,VWS V14.01,2013-08-11 08:03:00,
2013-08-11 04:08:00,62.1,56.2,29.59,NNW,338,0.0,0.0,81,0.00,,,0.00,VWS V14.01,2013-08-11 08:08:00,
2013-08-11 04:13:00,62.2,56.3,29.59,North,0,0.0,0.0,81,0.00,,,0.00,VWS V14.01,2013-08-11 08:13:00,
2013-08-11 04:19:00,62.2,56.3,29.59,NE,45,0.0,0.0,81,0.00,,,0.00,VWS V14.01,2013-08-11 08:19:00,
2013-08-11 04:24:00,62.6,56.7,29.59,NE,45,0.0,0.0,81,0.00,,,0.00,VWS V14.01,2013-08-11 08:24:00,
2013-08-11 04:29:00,62.6,57.0,29.59,NE,45,0.0,0.0,82,0.00,,,0.00,VWS V14.01,2013-08-11 08:29:00,
2013-08-11 04:34:00,62.8,57.2,29.59,NE,45,0.0,0.0,82,0.00,,,0.00,VWS V14.01,2013-08-11 08:34:00,
2013-08-11 04:39:00,63.1,57.2,29.59,NNE,22,0.0,0.0,81,0.00,,,0.00,VWS V14.01,2013-08-11 08:39:00,
2013-08-11 04:44:00,63.1,57.6,29.59,North,0,0.0,0.0,82,0.00,,,0.00,VWS V14.01,2013-08-11 08:44:00,
2013-08-11 04:49:00,63.1,57.2,29.62,NE,45,0.0,0.0,81,0.00,,,0.00,VWS V14.01,2013-08-11 08:49:00,
2013-08-11 04:54:00,63.1,57.2,29.62,NE,45,0.0,0.0,81,0.00,,,0.00,VWS V14.01,2013-08-11 08:54:00,
2013-08-11 05:00:00,63.0,57.0,29.62,SW,225,0.0,0.0,81,0.00,,,0.00,VWS V14.01,2013-08-11 09:00:00,
2013-08-11 05:05:00,62.8,56.9,29.62,West,270,0.0,0.0,81,0.00,,,0.00,VWS V14.01,2013-08-11 09:05:00,
2013-08-11 05:10:00,62.8,56.9,29.62,West,270,0.0,0.0,81,0.00,,,0.00,VWS V14.01,2013-08-11 09:10:00,
2013-08-11 05:15:00,63.0,57.4,29.62,ENE,68,0.0,0.0,82,0.00,,,0.00,VWS V14.01,2013-08-11 09:15:00,
2013-08-11 05:20:00,63.0,57.4,29.59,NNE,22,0.0,0.0,82,0.00,,,0.00,VWS V14.01,2013-08-11 09:20:00,
2013-08-11 05:25:00,62.8,57.2,29.59,NNW,338,0.0,0.0,82,0.00,,,0.00,VWS V14.01,2013-08-11 09:25:00,
2013-08-11 05:30:00,62.8,57.2,29.59,WSW,248,0.0,0.0,82,0.00,,,0.00,VWS V14.01,2013-08-11 09:30:00,
2013-08-11 05:35:00,62.8,57.2,29.62,NNW,338,0.0,0.0,82,0.00,,,0.00,VWS V14.01,2013-08-11 09:35:00,
2013-08-11 05:41:00,63.0,57.4,29.62,NNE,22,0.0,0.0,82,0.00,,,0.00,VWS V14.01,2013-08-11 09:41:00,
2013-08-11 05:46:00,63.0,57.4,29.62,SSE,158,0.0,0.0,82,0.00,,,0.00,VWS V14.01,2013-08-11 09:46:00,
2013-08-11 05:51:00,62.8,57.2,29.62,WSW,248,0.0,0.0,82,0.00,,,0.00,VWS V14.01,2013-08-11 09:51:00,
2013-08-11 05:56:00,63.0,57.4,29.62,SE,135,0.0,0.0,82,0.00,,,0.00,VWS V14.01,2013-08-11 09:56:00,
2013-08-11 06:01:00,63.0,57.4,29.62,East,90,0.0,0.0,82,0.00,,,0.00,VWS V14.01,2013-08-11 10:01:00,
2013-08-11 06:06:00,62.8,57.2,29.62,ENE,68,0.0,0.0,82,0.00,,,0.00,VWS V14.01,2013-08-11 10:06:00,
2013-08-11 06:11:00,62.6,57.0,29.62,East,90,0.0,0.0,82,0.00,,,0.00,VWS V14.01,2013-08-11 10:11:00,
2013-08-11 06:16:00,62.4,56.9,29.62,West,270,2.9,2.9,82,0.00,,,0.00,VWS V14.01,2013-08-11 10:16:00,
2013-08-11 06:22:00,62.1,56.8,29.59,SSW,202,0.0,0.0,83,0.00,,,0.00,VWS V14.01,2013-08-11 10:22:00,
2013-08-11 06:27:00,62.2,57.0,29.59,NNW,338,0.0,0.0,83,0.00,,,0.00,VWS V14.01,2013-08-11 10:27:00,
2013-08-11 06:32:00,62.2,57.3,29.59,East,90,0.0,0.0,84,0.00,,,0.00,VWS V14.01,2013-08-11 10:32:00,
2013-08-11 06:37:00,62.2,57.3,29.62,West,270,1.3,1.3,84,0.00,,,0.00,VWS V14.01,2013-08-11 10:37:00,
2013-08-11 06:43:00,62.4,57.5,29.62,NNW,338,0.0,0.0,84,0.00,,,0.00,VWS V14.01,2013-08-11 10:43:00,
2013-08-11 06:48:00,62.4,57.5,29.62,NNW,338,0.0,0.0,84,0.00,,,0.00,VWS V14.01,2013-08-11 10:48:00,
2013-08-11 06:53:00,62.6,58.0,29.62,NNW,338,0.0,0.0,85,0.00,,,0.00,VWS V14.01,2013-08-11 10:53:00,
2013-08-11 06:58:00,62.8,58.2,29.62,ENE,68,1.6,1.6,85,0.00,,,0.00,VWS V14.01,2013-08-11 10:58:00,
2013-08-11 07:03:00,63.0,58.4,29.62,ENE,68,0.0,0.0,85,0.00,,,0.00,VWS V14.01,2013-08-11 11:03:00,
2013-08-11 07:08:00,63.1,58.2,29.62,NE,45,0.0,0.0,84,0.00,,,0.00,VWS V14.01,2013-08-11 11:08:00,
2013-08-11 07:13:00,63.1,57.9,29.62,NE,45,0.0,0.0,83,0.00,,,0.00,VWS V14.01,2013-08-11 11:13:00,
2013-08-11 07:18:00,63.3,58.1,29.62,WSW,248,0.0,0.0,83,0.00,,,0.00,VWS V14.01,2013-08-11 11:18:00,
2013-08-11 07:23:00,63.3,57.7,29.62,NW,315,0.0,0.0,82,0.00,,,0.00,VWS V14.01,2013-08-11 11:23:00,
2013-08-11 07:28:00,63.3,57.7,29.62,WNW,292,0.0,0.0,82,0.00,,,0.00,VWS V14.01,2013-08-11 11:28:00,
2013-08-11 07:33:00,63.5,57.9,29.59,NNW,338,0.0,0.0,82,0.00,,,0.00,VWS V14.01,2013-08-11 11:33:00,
2013-08-11 07:39:00,63.7,58.1,29.59,NE,45,0.0,0.0,82,0.00,,,0.00,VWS V14.01,2013-08-11 11:39:00,
2013-08-11 07:44:00,63.9,58.3,29.59,NE,45,0.0,0.0,82,0.00,,,0.00,VWS V14.01,2013-08-11 11:44:00,
2013-08-11 07:49:00,63.9,58.3,29.59,NE,45,0.0,0.0,82,0.00,,,0.00,VWS V14.01,2013-08-11 11:49:00,
2013-08-11 07:55:00,64.0,58.4,29.59,NNE,22,0.0,0.0,82,0.00,,,0.00,VWS V14.01,2013-08-11 11:55:00,
2013-08-11 08:00:00,64.0,58.4,29.59,NNE,22,0.0,0.0,82,0.00,,,0.00,VWS V14.01,2013-08-11 12:00:00,
2013-08-11 08:05:00,64.0,58.1,29.62,NNW,338,0.0,0.0,81,0.00,,,0.00,VWS V14.01,2013-08-11 12:05:00,
2013-08-11 08:10:00,64.0,58.1,29.62,NNE,22,0.0,0.0,81,0.00,,,0.00,VWS V14.01,2013-08-11 12:10:00,
2013-08-11 08:15:00,64.0,58.1,29.62,SW,225,0.0,0.0,81,0.00,,,0.00,VWS V14.01,2013-08-11 12:15:00,
2013-08-11 08:20:00,64.2,58.3,29.62,NNW,338,0.0,0.0,81,0.00,,,0.00,VWS V14.01,2013-08-11 12:20:00,
2013-08-11 08:25:00,64.4,58.5,29.62,NNE,22,0.0,0.0,81,0.00,,,0.00,VWS V14.01,2013-08-11 12:25:00,
2013-08-11 08:30:00,64.6,58.3,29.62,SE,135,0.0,0.0,80,0.00,,,0.00,VWS V14.01,2013-08-11 12:30:00,
2013-08-11 08:35:00,64.8,58.5,29.62,NE,45,0.0,0.0,80,0.00,,,0.00,VWS V14.01,2013-08-11 12:35:00,
2013-08-11 08:40:00,64.9,58.3,29.62,North,0,0.0,0.0,79,0.00,,,0.00,VWS V14.01,2013-08-11 12:40:00,
2013-08-11 08:45:00,65.1,58.5,29.62,NNE,22,0.0,0.0,79,0.00,,,0.00,VWS V14.01,2013-08-11 12:45:00,
2013-08-11 08:50:00,65.3,58.3,29.62,NNE,22,0.9,0.9,78,0.00,,,0.00,VWS V14.01,2013-08-11 12:50:00,
2013-08-11 08:55:00,65.5,58.5,29.62,North,0,1.1,1.1,78,0.00,,,0.00,VWS V14.01,2013-08-11 12:55:00,
2013-08-11 09:00:00,65.7,58.3,29.62,NE,45,2.0,2.0,77,0.00,,,0.00,VWS V14.01,2013-08-11 13:00:00,
2013-08-11 09:06:00,65.7,58.3,29.65,NE,45,0.0,0.0,77,0.00,,,0.00,VWS V14.01,2013-08-11 13:06:00,
2013-08-11 09:11:00,65.7,57.9,29.65,ENE,68,2.5,2.5,76,0.00,,,0.00,VWS V14.01,2013-08-11 13:11:00,
2013-08-11 09:16:00,65.7,57.9,29.65,NE,45,0.0,0.0,76,0.00,,,0.00,VWS V14.01,2013-08-11 13:16:00,
2013-08-11 09:21:00,65.8,58.1,29.65,NE,45,0.0,0.0,76,0.00,,,0.00,VWS V14.01,2013-08-11 13:21:00,
2013-08-11 09:26:00,65.8,58.1,29.65,NE,45,1.3,1.3,76,0.00,,,0.00,VWS V14.01,2013-08-11 13:26:00,
2013-08-11 09:31:00,65.8,58.1,29.65,SE,135,2.9,2.9,76,0.00,,,0.00,VWS V14.01,2013-08-11 13:31:00,
2013-08-11 09:36:00,66.2,58.4,29.65,ESE,112,2.7,2.7,76,0.00,,,0.00,VWS V14.01,2013-08-11 13:36:00,
2013-08-11 09:41:00,66.4,58.6,29.65,NE,45,2.7,2.7,76,0.00,,,0.00,VWS V14.01,2013-08-11 13:41:00,
2013-08-11 09:47:00,66.6,58.4,29.65,NE,45,2.5,2.5,75,0.00,,,0.00,VWS V14.01,2013-08-11 13:47:00,
2013-08-11 09:52:00,66.7,58.9,29.62,NE,45,3.1,3.1,76,0.00,,,0.00,VWS V14.01,2013-08-11 13:52:00,
2013-08-11 09:57:00,66.9,58.8,29.62,NE,45,2.7,2.7,75,0.00,,,0.00,VWS V14.01,2013-08-11 13:57:00,
2013-08-11 10:02:00,66.9,58.0,29.62,NE,45,4.0,4.0,73,0.00,,,0.00,VWS V14.01,2013-08-11 14:02:00,
2013-08-11 10:07:00,67.1,57.8,29.62,NE,45,3.1,3.1,72,0.00,,,0.00,VWS V14.01,2013-08-11 14:07:00,
2013-08-11 10:12:00,67.3,58.0,29.62,NE,45,4.3,4.3,72,0.00,,,0.00,VWS V14.01,2013-08-11 14:12:00,
2013-08-11 10:17:00,67.3,57.6,29.62,NNE,22,4.0,4.0,71,0.00,,,0.00,VWS V14.01,2013-08-11 14:17:00,
2013-08-11 10:22:00,67.3,57.6,29.65,NNE,22,3.8,3.8,71,0.00,,,0.00,VWS V14.01,2013-08-11 14:22:00,
2013-08-11 10:27:00,67.3,57.6,29.65,NE,45,2.7,2.7,71,0.00,,,0.00,VWS V14.01,2013-08-11 14:27:00,
2013-08-11 10:33:00,67.5,58.1,29.65,ESE,112,2.5,2.5,72,0.00,,,0.00,VWS V14.01,2013-08-11 14:33:00,
2013-08-11 10:38:00,67.6,58.3,29.65,SE,135,2.9,2.9,72,0.00,,,0.00,VWS V14.01,2013-08-11 14:38:00,
2013-08-11 10:43:00,67.8,58.5,29.65,NE,45,2.0,2.0,72,0.00,,,0.00,VWS V14.01,2013-08-11 14:43:00,
2013-08-11 10:48:00,67.8,58.1,29.65,ENE,68,2.5,2.5,71,0.00,,,0.00,VWS V14.01,2013-08-11 14:48:00,
2013-08-11 10:53:00,68.2,58.4,29.65,East,90,1.6,1.6,71,0.00,,,0.00,VWS V14.01,2013-08-11 14:53:00,
2013-08-11 10:58:00,68.5,58.8,29.65,SSE,158,2.2,2.2,71,0.00,,,0.00,VWS V14.01,2013-08-11 14:58:00,
2013-08-11 11:03:00,68.9,59.1,29.62,NE,45,3.1,3.1,71,0.00,,,0.00,VWS V14.01,2013-08-11 15:03:00,
2013-08-11 11:08:00,69.1,58.9,29.62,NE,45,2.0,2.0,70,0.00,,,0.00,VWS V14.01,2013-08-11 15:08:00,
2013-08-11 11:14:00,69.3,58.7,29.62,NE,45,1.1,1.1,69,0.00,,,0.00,VWS V14.01,2013-08-11 15:14:00,
2013-08-11 11:19:00,69.4,58.8,29.62,South,180,1.1,1.1,69,0.00,,,0.00,VWS V14.01,2013-08-11 15:19:00,
2013-08-11 11:24:00,69.6,58.6,29.62,South,180,2.7,2.7,68,0.00,,,0.00,VWS V14.01,2013-08-11 15:24:00,
2013-08-11 11:29:00,70.0,59.3,29.62,SSW,202,2.0,2.0,69,0.00,,,0.00,VWS V14.01,2013-08-11 15:29:00,
2013-08-11 11:34:00,70.3,59.3,29.62,SE,135,1.6,1.6,68,0.00,,,0.00,VWS V14.01,2013-08-11 15:34:00,
2013-08-11 11:39:00,70.3,58.9,29.62,West,270,2.2,2.2,67,0.00,,,0.00,VWS V14.01,2013-08-11 15:39:00,
2013-08-11 11:44:00,70.3,56.7,29.62,WSW,248,0.0,0.0,62,0.00,,,0.00,VWS V14.01,2013-08-11 15:44:00,
2013-08-11 11:50:00,70.3,58.5,29.59,NW,315,2.7,2.7,66,0.00,,,0.00,VWS V14.01,2013-08-11 15:50:00,
2013-08-11 11:55:00,70.3,58.0,29.59,NNE,22,4.3,4.3,65,0.00,,,0.00,VWS V14.01,2013-08-11 15:55:00,
2013-08-11 12:00:00,70.2,57.9,29.59,NNE,22,2.9,2.9,65,0.00,,,0.00,VWS V14.01,2013-08-11 16:00:00,
2013-08-11 12:05:00,70.0,57.7,29.62,NNE,22,0.9,0.9,65,0.00,,,0.00,VWS V14.01,2013-08-11 16:05:00,
2013-08-11 12:10:00,70.0,57.7,29.62,NNE,22,1.6,1.6,65,0.00,,,0.00,VWS V14.01,2013-08-11 16:10:00,
2013-08-11 12:15:00,70.0,57.7,29.62,NE,45,0.0,0.0,65,0.00,,,0.00,VWS V14.01,2013-08-11 16:15:00,
2013-08-11 12:20:00,70.2,58.3,29.65,NE,45,1.1,1.1,66,0.00,,,0.00,VWS V14.01,2013-08-11 16:20:00,
2013-08-11 12:25:00,70.3,58.5,29.65,NNE,22,2.9,2.9,66,0.00,,,0.00,VWS V14.01,2013-08-11 16:25:00,
2013-08-11 12:30:00,70.7,58.4,29.65,NNE,22,2.0,2.0,65,0.00,,,0.00,VWS V14.01,2013-08-11 16:30:00,
2013-08-11 12:35:00,71.1,59.1,29.62,North,0,0.9,0.9,66,0.00,,,0.00,VWS V14.01,2013-08-11 16:35:00,
2013-08-11 12:40:00,71.4,55.4,29.62,West,270,2.7,2.7,57,0.00,,,0.00,VWS V14.01,2013-08-11 16:40:00,
2013-08-11 12:46:00,72.1,58.9,29.62,NW,315,1.1,1.1,63,0.00,,,0.00,VWS V14.01,2013-08-11 16:46:00,
2013-08-11 12:51:00,72.7,58.9,29.62,SSW,202,1.3,1.3,62,0.00,,,0.00,VWS V14.01,2013-08-11 16:51:00,
2013-08-11 12:56:00,73.0,58.8,29.62,SSW,202,3.1,3.1,61,0.00,,,0.00,VWS V14.01,2013-08-11 16:56:00,
2013-08-11 13:01:00,73.2,59.0,29.62,South,180,2.0,2.0,61,0.00,,,0.00,VWS V14.01,2013-08-11 17:01:00,
2013-08-11 13:06:00,73.8,59.9,29.62,South,180,0.0,0.0,62,0.00,,,0.00,VWS V14.01,2013-08-11 17:06:00,
2013-08-11 13:11:00,74.1,58.9,29.62,ESE,112,2.9,2.9,59,0.00,,,0.00,VWS V14.01,2013-08-11 17:11:00,
2013-08-11 13:16:00,74.1,59.8,29.62,WSW,248,1.3,1.3,61,0.00,,,0.00,VWS V14.01,2013-08-11 17:16:00,
2013-08-11 13:21:00,73.9,58.7,29.59,West,270,2.5,2.5,59,0.00,,,0.00,VWS V14.01,2013-08-11 17:21:00,
2013-08-11 13:27:00,74.1,58.4,29.59,SSE,158,3.4,3.4,58,0.00,,,0.00,VWS V14.01,2013-08-11 17:27:00,
2013-08-11 13:32:00,74.3,59.1,29.59,West,270,2.7,2.7,59,0.00,,,0.00,VWS V14.01,2013-08-11 17:32:00,
2013-08-11 13:37:00,74.3,58.6,29.59,SSW,202,4.7,4.7,58,0.00,,,0.00,VWS V14.01,2013-08-11 17:37:00,
2013-08-11 13:42:00,74.3,57.6,29.59,SSE,158,0.0,0.0,56,0.00,,,0.00,VWS V14.01,2013-08-11 17:42:00,
2013-08-11 13:47:00,74.7,58.4,29.59,SW,225,3.6,3.6,57,0.00,,,0.00,VWS V14.01,2013-08-11 17:47:00,
2013-08-11 13:53:00,75.6,59.3,29.56,NW,315,0.9,0.9,57,0.00,,,0.00,VWS V14.01,2013-08-11 17:53:00,
2013-08-11 13:58:00,76.1,60.3,29.56,SE,135,5.6,5.6,58,0.00,,,0.00,VWS V14.01,2013-08-11 17:58:00,
2013-08-11 14:03:00,76.5,61.1,29.59,SE,135,1.3,1.3,59,0.00,,,0.00,VWS V14.01,2013-08-11 18:03:00,
2013-08-11 14:08:00,76.8,59.5,29.59,West,270,3.6,3.6,55,0.00,,,0.00,VWS V14.01,2013-08-11 18:08:00,
2013-08-11 14:13:00,77.4,56.2,29.59,North,0,2.7,2.7,48,0.00,,,0.00,VWS V14.01,2013-08-11 18:13:00,
2013-08-11 14:18:00,77.4,56.7,29.56,WNW,292,5.6,5.6,49,0.00,,,0.00,VWS V14.01,2013-08-11 18:18:00,
2013-08-11 14:23:00,77.9,57.8,29.56,SW,225,2.9,2.9,50,0.00,,,0.00,VWS V14.01,2013-08-11 18:23:00,
2013-08-11 14:28:00,78.1,58.0,29.56,West,270,4.0,4.0,50,0.00,,,0.00,VWS V14.01,2013-08-11 18:28:00,
2013-08-11 14:33:00,78.1,57.4,29.56,West,270,1.1,1.1,49,0.00,,,0.00,VWS V14.01,2013-08-11 18:33:00,
2013-08-11 14:38:00,77.9,57.2,29.56,NNW,338,1.6,1.6,49,0.00,,,0.00,VWS V14.01,2013-08-11 18:38:00,
2013-08-11 14:43:00,77.9,57.8,29.56,NE,45,3.1,3.1,50,0.00,,,0.00,VWS V14.01,2013-08-11 18:43:00,
2013-08-11 14:48:00,78.1,58.0,29.56,NNE,22,3.6,3.6,50,0.00,,,0.00,VWS V14.01,2013-08-11 18:48:00,
2013-08-11 14:53:00,78.1,58.0,29.56,NNE,22,2.2,2.2,50,0.00,,,0.00,VWS V14.01,2013-08-11 18:53:00,
2013-08-11 14:59:00,78.1,57.4,29.56,NW,315,3.6,3.6,49,0.00,,,0.00,VWS V14.01,2013-08-11 18:59:00,
2013-08-11 15:04:00,78.1,57.4,29.53,SSE,158,2.0,2.0,49,0.00,,,0.00,VWS V14.01,2013-08-11 19:04:00,
2013-08-11 15:09:00,78.6,57.3,29.53,WNW,292,0.0,0.0,48,0.00,,,0.00,VWS V14.01,2013-08-11 19:09:00,
2013-08-11 15:14:00,78.6,58.4,29.53,South,180,2.7,2.7,50,0.00,,,0.00,VWS V14.01,2013-08-11 19:14:00,
2013-08-11 15:19:00,78.8,58.6,29.56,NNW,338,2.5,2.5,50,0.00,,,0.00,VWS V14.01,2013-08-11 19:19:00,
2013-08-11 15:24:00,79.0,58.2,29.56,WNW,292,2.2,2.2,49,0.00,,,0.00,VWS V14.01,2013-08-11 19:24:00,
2013-08-11 15:30:00,79.2,57.8,29.56,West,270,4.0,4.0,48,0.00,,,0.00,VWS V14.01,2013-08-11 19:30:00,
2013-08-11 15:35:00,79.3,57.4,29.56,NNW,338,0.0,0.0,47,0.00,,,0.00,VWS V14.01,2013-08-11 19:35:00,
2013-08-11 15:40:00,79.3,56.2,29.56,SW,225,0.0,0.0,45,0.00,,,0.00,VWS V14.01,2013-08-11 19:40:00,
2013-08-11 15:45:00,79.9,57.3,29.56,WNW,292,1.3,1.3,46,0.00,,,0.00,VWS V14.01,2013-08-11 19:45:00,
2013-08-11 15:50:00,80.1,58.6,29.56,ENE,68,2.5,2.5,48,0.00,,,0.00,VWS V14.01,2013-08-11 19:50:00,
2013-08-11 15:55:00,79.7,58.3,29.56,NE,45,3.6,3.6,48,0.00,,,0.00,VWS V14.01,2013-08-11 19:55:00,
2013-08-11 16:00:00,79.5,58.1,29.56,North,0,3.8,3.8,48,0.00,,,0.00,VWS V14.01,2013-08-11 20:00:00,
2013-08-11 16:05:00,79.2,57.2,29.56,NNE,22,2.9,2.9,47,0.00,,,0.00,VWS V14.01,2013-08-11 20:05:00,
2013-08-11 16:10:00,79.5,58.1,29.56,WNW,292,0.9,0.9,48,0.00,,,0.00,VWS V14.01,2013-08-11 20:10:00,
2013-08-11 16:15:00,79.5,58.1,29.56,West,270,6.5,6.5,48,0.00,,,0.00,VWS V14.01,2013-08-11 20:15:00,
2013-08-11 16:20:00,79.7,57.7,29.53,WNW,292,3.4,3.4,47,0.00,,,0.00,VWS V14.01,2013-08-11 20:20:00,
2013-08-11 16:25:00,79.5,58.1,29.53,NNE,22,3.8,3.8,48,0.00,,,0.00,VWS V14.01,2013-08-11 20:25:00,
2013-08-11 16:31:00,79.3,58.0,29.53,NNE,22,1.1,1.1,48,0.00,,,0.00,VWS V14.01,2013-08-11 20:31:00,
2013-08-11 16:36:00,79.2,58.4,29.53,WNW,292,2.2,2.2,49,0.00,,,0.00,VWS V14.01,2013-08-11 20:36:00,
2013-08-11 16:42:00,79.5,58.7,29.53,NW,315,3.8,3.8,49,0.00,,,0.00,VWS V14.01,2013-08-11 20:42:00,
2013-08-11 16:47:00,79.5,58.1,29.53,NNW,338,2.9,2.9,48,0.00,,,0.00,VWS V14.01,2013-08-11 20:47:00,
2013-08-11 16:52:00,79.3,58.0,29.53,NNE,22,4.9,4.9,48,0.00,,,0.00,VWS V14.01,2013-08-11 20:52:00,
2013-08-11 16:57:00,79.2,58.4,29.53,NE,45,2.5,2.5,49,0.00,,,0.00,VWS V14.01,2013-08-11 20:57:00,
2013-08-11 17:02:00,79.3,58.5,29.53,NNW,338,2.7,2.7,49,0.00,,,0.00,VWS V14.01,2013-08-11 21:02:00,
2013-08-11 17:07:00,79.2,58.4,29.53,North,0,4.0,4.0,49,0.00,,,0.00,VWS V14.01,2013-08-11 21:07:00,
2013-08-11 17:12:00,78.8,58.6,29.53,North,0,1.6,1.6,50,0.00,,,0.00,VWS V14.01,2013-08-11 21:12:00,
2013-08-11 17:17:00,78.6,58.4,29.50,NW,315,0.0,0.0,50,0.00,,,0.00,VWS V14.01,2013-08-11 21:17:00,
2013-08-11 17:23:00,78.8,58.6,29.50,North,0,2.0,2.0,50,0.00,,,0.00,VWS V14.01,2013-08-11 21:23:00,
2013-08-11 17:28:00,79.2,59.5,29.50,NNW,338,0.0,0.0,51,0.00,,,0.00,VWS V14.01,2013-08-11 21:28:00,
2013-08-11 17:33:00,79.2,58.9,29.50,NW,315,0.0,0.0,50,0.00,,,0.00,VWS V14.01,2013-08-11 21:33:00,
2013-08-11 17:38:00,79.0,59.3,29.50,WNW,292,1.3,1.3,51,0.00,,,0.00,VWS V14.01,2013-08-11 21:38:00,
2013-08-11 17:44:00,78.8,59.2,29.50,North,0,1.1,1.1,51,0.00,,,0.00,VWS V14.01,2013-08-11 21:44:00,
2013-08-11 17:49:00,78.6,59.5,29.53,North,0,0.9,0.9,52,0.00,,,0.00,VWS V14.01,2013-08-11 21:49:00,
2013-08-11 17:54:00,78.8,59.7,29.53,NE,45,1.6,1.6,52,0.00,,,0.00,VWS V14.01,2013-08-11 21:54:00,
2013-08-11 17:59:00,78.8,59.2,29.53,NE,45,2.9,2.9,51,0.00,,,0.00,VWS V14.01,2013-08-11 21:59:00,
2013-08-11 18:04:00,78.6,59.5,29.50,NNE,22,0.0,0.0,52,0.00,,,0.00,VWS V14.01,2013-08-11 22:04:00,
2013-08-11 18:09:00,78.4,59.9,29.50,SSE,158,0.0,0.0,53,0.00,,,0.00,VWS V14.01,2013-08-11 22:09:00,
2013-08-11 18:15:00,78.3,60.8,29.50,ENE,68,0.9,0.9,55,0.00,,,0.00,VWS V14.01,2013-08-11 22:15:00,
2013-08-11 18:20:00,77.9,60.5,29.50,ESE,112,0.0,0.0,55,0.00,,,0.00,VWS V14.01,2013-08-11 22:20:00,
2013-08-11 18:25:00,77.7,60.3,29.50,East,90,0.0,0.0,55,0.00,,,0.00,VWS V14.01,2013-08-11 22:25:00,
2013-08-11 18:31:00,77.5,59.6,29.50,SSE,158,2.0,2.0,54,0.00,,,0.00,VWS V14.01,2013-08-11 22:31:00,
2013-08-11 18:36:00,77.5,60.6,29.50,NE,45,1.3,1.3,56,0.00,,,0.00,VWS V14.01,2013-08-11 22:36:00,
2013-08-11 18:41:00,77.5,60.6,29.50,NE,45,2.0,2.0,56,0.00,,,0.00,VWS V14.01,2013-08-11 22:41:00,
2013-08-11 18:46:00,77.5,60.6,29.50,ENE,68,0.0,0.0,56,0.00,,,0.00,VWS V14.01,2013-08-11 22:46:00,
2013-08-11 18:51:00,77.4,60.5,29.50,ESE,112,1.3,1.3,56,0.00,,,0.00,VWS V14.01,2013-08-11 22:51:00,
2013-08-11 18:56:00,77.2,60.8,29.50,NE,45,0.9,0.9,57,0.00,,,0.00,VWS V14.01,2013-08-11 22:56:00,
2013-08-11 19:01:00,77.2,60.8,29.50,East,90,1.6,1.6,57,0.00,,,0.00,VWS V14.01,2013-08-11 23:01:00,
2013-08-11 19:06:00,77.4,61.0,29.50,ESE,112,1.3,1.3,57,0.00,,,0.00,VWS V14.01,2013-08-11 23:06:00,
2013-08-11 19:11:00,77.4,60.5,29.50,NE,45,0.0,0.0,56,0.00,,,0.00,VWS V14.01,2013-08-11 23:11:00,
2013-08-11 19:16:00,77.2,60.3,29.50,ENE,68,0.0,0.0,56,0.00,,,0.00,VWS V14.01,2013-08-11 23:16:00,
2013-08-11 19:21:00,77.0,60.6,29.50,ENE,68,0.0,0.0,57,0.00,,,0.00,VWS V14.01,2013-08-11 23:21:00,
2013-08-11 19:26:00,76.8,60.9,29.50,ENE,68,0.0,0.0,58,0.00,,,0.00,VWS V14.01,2013-08-11 23:26:00,
2013-08-11 19:31:00,76.6,61.2,29.50,ENE,68,0.0,0.0,59,0.00,,,0.00,VWS V14.01,2013-08-11 23:31:00,
2013-08-11 19:36:00,76.5,60.6,29.50,NE,45,1.1,1.1,58,0.00,,,0.00,VWS V14.01,2013-08-11 23:36:00,
2013-08-11 19:41:00,76.5,61.1,29.50,NE,45,0.0,0.0,59,0.00,,,0.00,VWS V14.01,2013-08-11 23:41:00,
2013-08-11 19:46:00,76.3,60.9,29.50,NE,45,0.0,0.0,59,0.00,,,0.00,VWS V14.01,2013-08-11 23:46:00,
2013-08-11 19:51:00,75.9,61.0,29.50,NE,45,0.0,0.0,60,0.00,,,0.00,VWS V14.01,2013-08-11 23:51:00,
2013-08-11 19:56:00,75.7,61.3,29.50,NE,45,0.0,0.0,61,0.00,,,0.00,VWS V14.01,2013-08-11 23:56:00,
2013-08-11 20:01:00,75.4,61.5,29.50,NE,45,0.0,0.0,62,0.00,,,0.00,VWS V14.01,2013-08-12 00:01:00,
2013-08-11 20:06:00,75.2,60.8,29.53,NE,45,0.0,0.0,61,0.00,,,0.00,VWS V14.01,2013-08-12 00:06:00,
2013-08-11 20:11:00,74.8,61.0,29.53,NE,45,0.0,0.0,62,0.00,,,0.00,VWS V14.01,2013-08-12 00:11:00,
2013-08-11 20:16:00,74.5,60.6,29.53,NE,45,0.0,0.0,62,0.00,,,0.00,VWS V14.01,2013-08-12 00:16:00,
2013-08-11 20:21:00,74.5,61.5,29.50,WNW,292,0.0,0.0,64,0.00,,,0.00,VWS V14.01,2013-08-12 00:21:00,
2013-08-11 20:26:00,74.3,61.8,29.50,SSW,202,1.3,1.3,65,0.00,,,0.00,VWS V14.01,2013-08-12 00:26:00,
2013-08-11 20:31:00,73.9,61.4,29.50,SSW,202,0.9,0.9,65,0.00,,,0.00,VWS V14.01,2013-08-12 00:31:00,
2013-08-11 20:36:00,73.6,61.5,29.50,SSW,202,0.0,0.0,66,0.00,,,0.00,VWS V14.01,2013-08-12 00:36:00,
2013-08-11 20:41:00,73.2,61.6,29.50,SSW,202,0.0,0.0,67,0.00,,,0.00,VWS V14.01,2013-08-12 00:41:00,
2013-08-11 20:46:00,72.9,61.3,29.50,SW,225,2.2,2.2,67,0.00,,,0.00,VWS V14.01,2013-08-12 00:46:00,
2013-08-11 20:52:00,72.5,61.3,29.50,SSW,202,2.2,2.2,68,0.00,,,0.00,VWS V14.01,2013-08-12 00:52:00,
2013-08-11 20:57:00,72.3,61.2,29.50,SSW,202,0.0,0.0,68,0.00,,,0.00,VWS V14.01,2013-08-12 00:57:00,
2013-08-11 21:02:00,72.1,61.4,29.50,SW,225,1.6,1.6,69,0.00,,,0.00,VWS V14.01,2013-08-12 01:02:00,
2013-08-11 21:07:00,71.8,61.1,29.53,SSW,202,0.0,0.0,69,0.00,,,0.00,VWS V14.01,2013-08-12 01:07:00,
2013-08-11 21:12:00,71.6,60.9,29.53,SSW,202,0.0,0.0,69,0.00,,,0.00,VWS V14.01,2013-08-12 01:12:00,
2013-08-11 21:17:00,71.4,61.1,29.53,WSW,248,0.0,0.0,70,0.00,,,0.00,VWS V14.01,2013-08-12 01:17:00,
2013-08-11 21:22:00,71.2,61.4,29.50,WSW,248,1.6,1.6,71,0.00,,,0.00,VWS V14.01,2013-08-12 01:22:00,
2013-08-11 21:27:00,71.1,61.6,29.50,SSW,202,1.6,1.6,72,0.00,,,0.00,VWS V14.01,2013-08-12 01:27:00,
2013-08-11 21:32:00,70.9,61.8,29.53,SW,225,0.0,0.0,73,0.00,,,0.00,VWS V14.01,2013-08-12 01:32:00,
2013-08-11 21:37:00,70.9,62.2,29.53,West,270,0.0,0.0,74,0.00,,,0.00,VWS V14.01,2013-08-12 01:37:00,
2013-08-11 21:43:00,70.5,61.8,29.53,West,270,0.0,0.0,74,0.00,,,0.00,VWS V14.01,2013-08-12 01:43:00,
2013-08-11 21:48:00,70.5,61.8,29.56,West,270,0.0,0.0,74,0.00,,,0.00,VWS V14.01,2013-08-12 01:48:00,
2013-08-11 21:53:00,70.5,61.8,29.56,North,0,0.0,0.0,74,0.00,,,0.00,VWS V14.01,2013-08-12 01:53:00,
2013-08-11 21:58:00,70.5,61.5,29.56,WNW,292,0.0,0.0,73,0.00,,,0.00,VWS V14.01,2013-08-12 01:58:00,
2013-08-11 22:03:00,70.5,61.5,29.53,WNW,292,0.0,0.0,73,0.00,,,0.00,VWS V14.01,2013-08-12 02:03:00,
2013-08-11 22:09:00,70.5,61.8,29.53,WSW,248,0.0,0.0,74,0.00,,,0.00,VWS V14.01,2013-08-12 02:09:00,
2013-08-11 22:14:00,70.3,62.0,29.53,WSW,248,0.0,0.0,75,0.00,,,0.00,VWS V14.01,2013-08-12 02:14:00,
2013-08-11 22:19:00,70.2,61.9,29.53,WSW,248,0.0,0.0,75,0.00,,,0.00,VWS V14.01,2013-08-12 02:19:00,
2013-08-11 22:24:00,70.0,62.1,29.53,West,270,0.0,0.0,76,0.00,,,0.00,VWS V14.01,2013-08-12 02:24:00,
2013-08-11 22:29:00,69.6,61.7,29.53,West,270,0.0,0.0,76,0.00,,,0.00,VWS V14.01,2013-08-12 02:29:00,
2013-08-11 22:35:00,69.6,62.1,29.53,North,0,0.0,0.0,77,0.00,,,0.00,VWS V14.01,2013-08-12 02:35:00,
2013-08-11 22:40:00,69.4,61.9,29.53,North,0,0.0,0.0,77,0.00,,,0.00,VWS V14.01,2013-08-12 02:40:00,
2013-08-11 22:45:00,69.4,61.9,29.53,North,0,0.0,0.0,77,0.00,,,0.00,VWS V14.01,2013-08-12 02:45:00,
2013-08-11 22:50:00,69.4,62.3,29.53,SW,225,0.0,0.0,78,0.00,,,0.00,VWS V14.01,2013-08-12 02:50:00,
2013-08-11 22:55:00,69.4,62.3,29.53,SSW,202,0.0,0.0,78,0.00,,,0.00,VWS V14.01,2013-08-12 02:55:00,
2013-08-11 23:00:00,69.3,62.1,29.53,SSW,202,0.0,0.0,78,0.00,,,0.00,VWS V14.01,2013-08-12 03:00:00,
2013-08-11 23:06:00,69.3,62.5,29.53,East,90,0.0,0.0,79,0.00,,,0.00,VWS V14.01,2013-08-12 03:06:00,
2013-08-11 23:11:00,69.3,62.5,29.53,East,90,0.0,0.0,79,0.00,,,0.00,VWS V14.01,2013-08-12 03:11:00,
2013-08-11 23:17:00,69.1,62.3,29.53,ENE,68,0.0,0.0,79,0.00,,,0.00,VWS V14.01,2013-08-12 03:17:00,
2013-08-11 23:22:00,69.1,62.3,29.53,East,90,0.0,0.0,79,0.00,,,0.00,VWS V14.01,2013-08-12 03:22:00,
2013-08-11 23:27:00,68.9,62.1,29.53,ENE,68,0.0,0.0,79,0.00,,,0.00,VWS V14.01,2013-08-12 03:27:00,
2013-08-11 23:32:00,68.7,62.3,29.53,ENE,68,0.0,0.0,80,0.00,,,0.00,VWS V14.01,2013-08-12 03:32:00,
2013-08-11 23:37:00,68.7,62.3,29.53,ENE,68,0.0,0.0,80,0.00,,,0.00,VWS V14.01,2013-08-12 03:37:00,
2013-08-11 23:42:00,68.5,62.1,29.53,ENE,68,0.0,0.0,80,0.00,,,0.00,VWS V14.01,2013-08-12 03:42:00,
2013-08-11 23:47:00,68.5,62.5,29.53,East,90,1.1,1.1,81,0.00,,,0.00,VWS V14.01,2013-08-12 03:47:00,
2013-08-11 23:53:00,68.5,62.5,29.53,ENE,68,0.0,0.0,81,0.00,,,0.00,VWS V14.01,2013-08-12 03:53:00,
2013-08-11 23:58:00,68.5,62.5,29.53,ENE,68,0.0,0.0,81,0.00,,,0.00,VWS V14.01,2013-08-12 03:58:00,